Weather History for Amritsar, India

Change the Weather History Date:

Monday, February 18, 2013

  Actual Average Record
Temperature  
Mean Temperature 56 °F -  
Max Temperature 70 °F 69 °F 78 °F (2002)
Min Temperature 43 °F 47 °F 33 °F (2014)
Degree Days  
Heating Degree Days 8    
Growing Degree Days 6 (Base 50)    
Moisture  
Dew Point 53 °F    
Average Humidity 92    
Maximum Humidity 100    
Minimum Humidity 68    
Precipitation  
Precipitation 0.00 in - - ()
Sea Level Pressure  
Sea Level Pressure 29.99 in    
Wind  
Wind Speed 1 mph ()    
Max Wind Speed 9 mph    
Max Gust Speed -    
Visibility 2.0 miles    
Events Fog    
Averages and records for this station are not official NWS values.
T = Trace of Precipitation, MM = Missing Value Source: Averaged Metar Reports

Daily Weather History Graph

Daily Weather History Graph

Search for Another Location

Airport:

Trip Planner

Search our weather history database for the weather conditions in past years. The results will help you decide how hot, cold, wet, or windy it might be!

Date:

Astronomy

Feb. 18, 2013 Rise Set
Actual Time 7:09 AM IST 6:19 PM IST
Civil Twilight 6:45 AM IST 6:44 PM IST
Nautical Twilight 6:16 AM IST 7:13 PM IST
Astronomical Twilight 5:48 AM IST 7:41 PM IST
Moon 11:55 AM IST 1:15 AM IST
Length of Visible Light 11h 59m
Length of Day
11h 10m
First Quarter, 54% of the Moon is Illuminated
Feb 18
First Quarter
Feb 26
Full
Mar 5
Last Quarter
Mar 12
New
Mar 19
First Quarter

Hourly Weather History & Observations

Time (IST) Temp. Dew Point Humidity Pressure Visibility Wind Dir Wind Speed Gust Speed Precip Events Conditions
12:00 AM 51.8 °F 51.8 °F 100% 30.01 in 0.9 mi Calm Calm - N/A   Scattered Clouds
12:30 AM 51.8 °F 51.8 °F 100% 30.01 in 0.9 mi Calm Calm - N/A   Scattered Clouds
1:00 AM 51.8 °F 51.8 °F 100% 30.01 in 0.9 mi Calm Calm - N/A   Scattered Clouds
1:30 AM 51.8 °F 51.8 °F 100% 30.01 in 0.9 mi Calm Calm - N/A   Scattered Clouds
2:00 AM 50.0 °F 50.0 °F 100% 29.98 in 0.9 mi Calm Calm - N/A   Scattered Clouds
2:30 AM 49 °F 49 °F 100% 30.00 in 1 mi Calm Calm - -   Mist
2:30 AM 50.0 °F 50.0 °F 100% 29.98 in 0.9 mi Calm Calm - N/A   Scattered Clouds
3:00 AM 48.2 °F 48.2 °F 100% 29.98 in 0.9 mi Calm Calm - N/A   Scattered Clouds
3:30 AM 46.4 °F 46.4 °F 100% 29.98 in 0.5 mi Calm Calm - N/A Fog Fog
4:00 AM 46.4 °F 46.4 °F 100% 29.98 in 0.2 mi Calm Calm - N/A Fog Fog
5:00 AM 44.6 °F 44.6 °F 100% 29.95 in 0.2 mi Calm Calm - N/A Fog Fog
5:30 AM 46.4 °F 46.4 °F 100% 29.98 in - Calm Calm - N/A Fog Fog
6:00 AM 46.4 °F 46.4 °F 100% 29.98 in - Calm Calm - N/A Fog Fog
6:30 AM 44.6 °F 44.6 °F 100% 29.98 in - Calm Calm - N/A Fog Fog
7:00 AM 44.6 °F 44.6 °F 100% 29.98 in - Calm Calm - N/A Fog Fog
7:30 AM 44.6 °F 44.6 °F 100% 29.98 in - Calm Calm - N/A Fog Fog
8:00 AM 44.6 °F 44.6 °F 100% 30.01 in - Calm Calm - N/A Fog Fog
8:30 AM 46 °F 46 °F 100% 30.04 in 0 mi Calm Calm - - Fog Heavy Fog
9:00 AM 48.2 °F 48.2 °F 100% 30.04 in - Calm Calm - N/A Fog Fog
9:30 AM 51.8 °F 51.8 °F 100% 30.04 in 0.1 mi Calm Calm - N/A Fog Fog
10:00 AM 53.6 °F 53.6 °F 100% 30.04 in 0.2 mi Calm Calm - N/A Fog Fog
10:30 AM 55.4 °F 55.4 °F 100% 30.04 in 0.7 mi Calm Calm - N/A   Scattered Clouds
11:00 AM 55.4 °F 55.4 °F 100% 30.04 in 1.2 mi West 3.5 mph - N/A   Scattered Clouds
11:30 AM 59 °F 59 °F 98% 30.04 in 2 mi West 3.5 mph - -   Mostly Cloudy
11:30 AM 59.0 °F 59.0 °F 100% 30.04 in 2.5 mi Variable 3.5 mph - N/A   Scattered Clouds
12:00 PM 60.8 °F 57.2 °F 88% 30.04 in 2.5 mi West 4.6 mph - N/A   Scattered Clouds
12:30 PM 64.4 °F 59.0 °F 83% 30.04 in 3.1 mi WNW 8.1 mph - N/A   Scattered Clouds
1:00 PM 64.4 °F 59.0 °F 83% 30.01 in 3.1 mi WNW 6.9 mph - N/A   Scattered Clouds
1:30 PM 66.2 °F 59.0 °F 78% 30.01 in 3.7 mi WNW 6.9 mph - N/A   Scattered Clouds
2:00 PM 66.2 °F 59.0 °F 78% 30.01 in 3.7 mi WNW 8.1 mph - N/A   Scattered Clouds
2:30 PM 68.0 °F 59.0 °F 73% 29.98 in 3.7 mi WNW 9.2 mph - N/A   Scattered Clouds
3:00 PM 68.0 °F 57.2 °F 68% 29.98 in 3.7 mi West 8.1 mph - N/A   Scattered Clouds
3:30 PM 68.0 °F 57.2 °F 68% 29.95 in 3.7 mi WNW 8.1 mph - N/A   Scattered Clouds
4:00 PM 68.0 °F 57.2 °F 68% 29.95 in 3.7 mi WNW 6.9 mph - N/A   Scattered Clouds
4:30 PM 68.0 °F 59.0 °F 73% 29.95 in 3.7 mi WNW 8.1 mph - N/A   Scattered Clouds
5:00 PM 68.0 °F 59.0 °F 73% 29.95 in 3.7 mi WNW 8.1 mph - N/A   Scattered Clouds
5:30 PM 66 °F 59 °F 72% 29.94 in 2 mi West 5.8 mph - -   Scattered Clouds
5:30 PM 66.2 °F 59.0 °F 78% 29.95 in 3.7 mi West 5.8 mph - N/A   Scattered Clouds
6:00 PM 64.4 °F 59.0 °F 83% 29.95 in 3.7 mi Calm Calm - N/A   Partly Cloudy
6:30 PM 60.8 °F 57.2 °F 88% 29.95 in 3.1 mi Calm Calm - N/A   Partly Cloudy
7:00 PM 60.8 °F 55.4 °F 82% 29.95 in 3.1 mi Calm Calm - N/A   Partly Cloudy
7:30 PM 59.0 °F 55.4 °F 88% 29.98 in 3.1 mi Calm Calm - N/A   Partly Cloudy
8:00 PM 59.0 °F 55.4 °F 88% 29.98 in 3.1 mi Calm Calm - N/A   Partly Cloudy
8:30 PM 56 °F 56 °F 99%  in 2 mi Calm Calm - -   Mist
8:30 PM 55.4 °F 55.4 °F 100% 29.98 in 2.5 mi Calm Calm - N/A   Mist
9:00 PM 55.4 °F 55.4 °F 100% 30.01 in 2.5 mi Calm Calm - N/A   Mist
9:30 PM 55.4 °F 55.4 °F 100% 30.01 in 2.5 mi Calm Calm - N/A   Mist
10:00 PM 55.4 °F 53.6 °F 94% 30.01 in 1.6 mi Calm Calm - N/A   Mist
10:30 PM 53.6 °F 53.6 °F 100% 30.01 in 0.9 mi Calm Calm - N/A   Mist
11:00 PM 53.6 °F 53.6 °F 100% 30.01 in 0.6 mi Calm Calm - N/A   Mist
11:30 PM 53 °F 53 °F 99% 30.02 in 0 mi Calm Calm - - Fog Partial Fog